Vertical_Velocity
1 1 2 -0 0 5 -4 0 7 1 5 7 4 -0 8 -5 -2 9 10 -3 -8 -2 9 0 -5 -5 0 5 8 -1 9 -4 -12 2 5 1 -10 -4 -5 -4 2 -3 -1 5
-6 -3 -4 -4 -3 -8 -1 6 9 -3 4 0 1 2 15 -4 -0 3 6 5 -6 2 4 -5 2 12 13 10 -4 -6 5 -7 -7 -13 -5 -6 -8 4 6 6 2 -8 -10 12
-5 -3 -2 -2 -3 -3 -2 -0 6 3 -2 3 2 -2 0 6 -1 4 -2 11 4 -2 4 12 -13 -5 7 14 -4 0 7 -2 -16 -15 21 6 -11 5 8 -1 -17 21 -6 7
-2 -1 -1 -2 -2 -2 -3 -12 -7 -12 3 2 2 -0 3 4 4 2 -0 6 8 2 2 1 4 -9 -1 18 10 1 7 -2 16 1 4 4 -1 1 3 3 15 -28 38 -11
-3 -2 9 -6 -4 -3 5 -1 -4 -1 3 2 2 2 6 -2 4 4 8 2 1 5 4 -1 16 -5 -5 8 16 3 8 1 2 -12 6 8 1 -1 9 6 8 -8 7 -3
-2 -2 -2 -1 -1 -6 8 -1 -1 -9 8 1 -2 2 3 -1 0 8 -2 3 3 6 -2 -4 -1 2 7 -1 0 8 6 2 -2 -20 15 18 -8 1 9 10 23 -1 -3 -23
-1 -2 -2 -2 -2 -1 -5 -1 -5 -4 5 -4 1 2 1 1 -0 0 4 -1 -3 -2 -0 -5 -6 -2 6 -3 1 1 -1 9 15 -4 9 1 6 -6 5 10 1 -1 1 -8
-3 -2 -2 -2 1 0 2 2 -5 1 -1 2 5 -0 0 0 0 3 -3 -0 3 -4 -4 -7 -6 0 -4 1 7 4 9 20 21 -7 24 14 21 12 5 2 -3 1 -5 -5
-2 -2 -2 -1 -1 -1 1 4 -0 1 -2 5 -2 -1 -3 1 -1 2 0 1 -6 -5 -3 -2 1 2 -3 5 14 3 -0 -4 4 2 1 1 6 12 16 4 -4 -2 2 2
-3 -2 -2 -0 -0 -1 -1 1 -1 1 -5 3 2 -1 -2 -2 -1 -4 1 -4 10 0 -1 1 -1 1 2 6 -2 9 5 1 -5 10 12 -2 -4 3 -3 10 -0 -4 -2 -7
-2 -1 -2 -1 -1 -3 -0 -1 -0 -1 -2 17 25 2 -2 2 -4 1 3 2 -7 -5 2 -3 -3 4 3 -0 1 2 5 9 10 3 7 4 -4 -1 12 1 3 3 5 4
-2 -2 -1 -2 -1 -4 -1 -0 -0 1 -2 -1 -0 11 3 4 -0 0 -4 -2 -8 -4 3 6 3 0 0 -2 -0 1 -2 2 -1 6 8 4 3 5 4 -2 1 -3 8 -2
-2 -2 -1 -0 -2 -2 -1 -0 -1 0 2 4 3 3 -2 -3 -2 0 -0 -6 -0 -2 1 -0 0 1 1 -1 -0 0 -0 -2 -1 -4 2 1 1 -0 -2 -3 -3 -1 -5 -10
-2 -1 -1 0 -0 -1 -1 -0 -2 -2 -1 -2 -1 1 3 -2 -2 -2 -2 -3 -2 2 5 2 -0 1 3 -2 -1 3 3 -3 -8 -1 2 -1 -2 -1 -4 1 -2 -6 -6 -3
-3 -3 -2 -1 0 -0 -2 -2 1 2 2 1 -3 1 1 -3 1 -1 -1 1 1 -0 2 -0 1 5 2 2 -1 -1 -0 1 -0 -2 -0 -0 -1 1 -2 -6 -5 2 1 -5
-3 -3 -3 -2 -2 -0 -0 -3 -2 -0 1 2 1 2 -0 -2 -2 -1 -0 0 1 1 1 0 3 2 -2 -3 -1 -1 -1 -2 -2 -5 -4 -3 -3 -2 -0 -2 -6 -4 -6 -1
-3 -3 -4 -2 -1 -0 -1 -2 -3 -3 -3 -2 -3 -2 -1 -3 -1 -1 1 0 0 0 0 -1 -0 4 -1 -3 -1 1 2 0 -0 -0 -1 -1 3 2 -3 -3 -1 1 2 -1
-3 -4 -4 -4 -2 -2 -3 -2 -3 -3 -2 -1 -1 -2 1 1 -1 -1 2 0 1 0 1 2 2 -1 -2 -1 1 -2 0 1 1 -1 2 -2 -1 -2 0 -4 -1 -1 -1 -1
-4 -2 -3 -3 -6 -5 -2 -2 -2 -1 -1 -1 -1 -0 1 0 -0 -2 -1 0 -1 0 2 1 -1 -3 -4 -1 1 -0 0 1 0 -0 -1 0 1 -2 2 2 1 1 0 0
-2 -4 -4 0 2 -2 -1 -0 -2 -2 -0 -1 -1 1 1 -0 1 0 0 1 1 2 -1 1 -2 -0 0 0 0 0 1 1 -0 0 1 1 -0 1 -0 2 3 2 1 1
-1 -1 -3 -1 -1 -0 0 0 -1 -1 -1 -0 -0 1 -1 0 -0 -0 2 -1 -0 1 2 1 -1 -0 1 1 1 1 0 1 1 0 -0 -1 0 0 0 1 1 3 2 2
2 2 1 1 -1 -3 -3 -4 -3 -3 -1 -2 -0 -1 -0 -1 -0 0 1 1 1 -0 2 1 -0 -0 1 1 0 -1 -1 0 1 0 -0 0 1 0 0 0 1 -1 0 2
3 1 1 1 0 -2 -3 -0 -3 -6 -2 -1 -1 -1 0 -0 -1 1 -0 -0 1 1 1 -1 -0 1 1 0 -0 -0 -0 -0 -0 -1 -1 -0 -1 -1 1 2 1 1 1 -1
-0 0 2 6 1 3 2 2 0 -0 -0 -0 -0 -1 -0 -0 0 0 0 1 1 1 0 -0 1 0 0 0 -0 -1 -0 0 -0 -1 -1 0 0 -0 -0 1 1 1 1 -0
4 3 2 3 2 4 4 2 2 2 -0 -1 1 0 0 1 1 1 0 -0 0 1 1 -0 0 0 0 0 0 -0 -1 -1 0 1 0 -0 -0 1 0 -0 0 0 -0 -0
7 7 4 5 5 3 4 4 3 1 1 1 1 1 1 1 1 -0 0 1 1 1 1 1 -0 -0 -0 0 0 1 1 0 0 0 1 1 0 0 1 1 0 -1 -0 -1
5 3 3 2 1 1 2 3 3 2 2 2 2 1 1 1 1 1 1 1 0 1 1 1 1 1 1 1 1 1 1 0 0 0 0 0 1 1 0 0 -0 0 1 2
Height
5617 5610 5603 5596 5590 5586 5579 5575 5572 5568 5566 5564 5558 5557 5556 5553 5554 5552 5552 5551 5553 5555 5558 5557 5561 5568 5572 5573 5575 5578 5584 5582 5585 5590 5593 5596 5598 5600 5601 5603 5609 5612 5613 5618
5598 5590 5581 5572 5565 5559 5557 5553 5547 5543 5539 5536 5531 5531 5531 5527 5528 5528 5529 5530 5527 5531 5535 5534 5540 5549 5554 5553 5553 5558 5565 5563 5567 5573 5578 5579 5580 5585 5592 5595 5596 5597 5602 5605
5576 5566 5556 5547 5539 5533 5529 5526 5522 5517 5512 5508 5506 5505 5505 5501 5498 5501 5503 5503 5501 5505 5510 5512 5514 5521 5531 5533 5532 5539 5542 5543 5546 5555 5565 5564 5566 5573 5576 5579 5578 5584 5589 5592
5552 5541 5530 5521 5514 5507 5505 5497 5494 5492 5489 5484 5481 5478 5479 5477 5478 5479 5477 5478 5479 5481 5485 5490 5491 5494 5502 5510 5514 5518 5524 5525 5527 5536 5543 5546 5550 5555 5559 5562 5568 5568 5576 5578
5528 5519 5508 5499 5493 5486 5481 5476 5473 5470 5471 5464 5461 5458 5457 5454 5458 5458 5458 5458 5458 5459 5462 5466 5474 5472 5479 5488 5496 5500 5505 5507 5510 5515 5524 5529 5532 5537 5542 5548 5553 5553 5557 5563
5510 5501 5492 5484 5477 5470 5466 5457 5455 5450 5453 5449 5446 5445 5443 5442 5442 5443 5439 5442 5443 5442 5442 5444 5450 5455 5462 5468 5474 5482 5489 5490 5495 5499 5508 5512 5510 5523 5529 5532 5537 5538 5540 5544
5497 5488 5480 5473 5467 5460 5455 5449 5445 5442 5441 5438 5437 5435 5434 5434 5433 5433 5433 5431 5429 5429 5427 5428 5431 5437 5444 5449 5457 5462 5468 5475 5478 5482 5491 5493 5498 5502 5509 5511 5513 5517 5522 5528
5486 5478 5471 5464 5458 5453 5448 5443 5437 5434 5432 5432 5431 5429 5428 5428 5427 5427 5426 5425 5423 5421 5419 5417 5419 5421 5423 5433 5443 5444 5451 5455 5459 5466 5474 5478 5484 5485 5487 5490 5495 5500 5504 5511
5477 5469 5461 5454 5448 5444 5440 5436 5430 5427 5425 5426 5424 5423 5421 5421 5421 5421 5420 5420 5417 5414 5412 5410 5410 5410 5411 5416 5424 5426 5430 5436 5443 5452 5455 5460 5464 5469 5472 5474 5476 5481 5489 5494
5469 5460 5452 5445 5440 5437 5433 5429 5423 5420 5420 5420 5418 5418 5418 5417 5417 5417 5416 5415 5415 5410 5406 5405 5405 5406 5406 5408 5407 5412 5416 5419 5428 5435 5437 5438 5446 5452 5453 5458 5463 5467 5475 5481
5463 5453 5445 5439 5434 5430 5427 5422 5419 5417 5416 5414 5415 5413 5413 5412 5411 5411 5410 5409 5407 5405 5403 5402 5401 5402 5402 5402 5402 5402 5405 5410 5414 5419 5422 5425 5430 5438 5443 5443 5446 5452 5458 5465
5456 5446 5439 5433 5429 5424 5420 5417 5414 5411 5411 5411 5410 5409 5407 5407 5406 5405 5403 5402 5400 5399 5397 5398 5397 5397 5398 5398 5398 5399 5402 5401 5402 5407 5411 5412 5417 5421 5424 5428 5433 5438 5444 5449
5451 5442 5435 5430 5425 5419 5415 5411 5408 5407 5406 5405 5404 5403 5402 5400 5399 5398 5397 5395 5394 5392 5391 5392 5392 5393 5393 5394 5395 5395 5395 5395 5397 5398 5400 5401 5404 5408 5412 5415 5419 5423 5429 5435
5448 5439 5432 5426 5420 5415 5410 5405 5402 5401 5401 5400 5399 5398 5396 5393 5392 5389 5388 5387 5385 5385 5386 5386 5387 5388 5389 5389 5389 5390 5390 5390 5390 5392 5392 5393 5394 5397 5400 5404 5408 5412 5416 5420
5447 5437 5430 5423 5417 5411 5406 5401 5398 5397 5397 5394 5392 5391 5388 5384 5383 5381 5379 5378 5378 5379 5380 5382 5382 5383 5384 5385 5386 5386 5386 5386 5386 5386 5386 5386 5387 5388 5390 5393 5396 5399 5402 5406
5447 5437 5429 5421 5415 5409 5404 5399 5395 5391 5389 5387 5385 5383 5381 5379 5378 5375 5374 5373 5373 5375 5376 5377 5379 5379 5381 5381 5381 5381 5382 5382 5381 5381 5380 5380 5380 5382 5384 5387 5388 5391 5392 5393
5448 5439 5429 5421 5414 5408 5403 5399 5394 5389 5387 5385 5383 5381 5379 5377 5375 5374 5372 5370 5370 5372 5373 5374 5375 5376 5376 5376 5376 5377 5377 5377 5376 5376 5375 5374 5373 5373 5376 5379 5381 5383 5384 5386
5449 5440 5431 5422 5415 5408 5402 5397 5392 5388 5386 5383 5381 5379 5377 5375 5373 5371 5369 5368 5368 5369 5370 5371 5372 5373 5373 5373 5372 5372 5371 5372 5372 5371 5371 5370 5369 5368 5368 5371 5373 5375 5377 5378
5448 5439 5431 5424 5416 5408 5402 5396 5392 5387 5385 5381 5379 5376 5374 5372 5370 5368 5367 5366 5366 5367 5367 5368 5369 5368 5368 5367 5366 5366 5366 5367 5367 5367 5366 5366 5366 5366 5364 5364 5366 5369 5370 5372
5446 5439 5432 5425 5418 5410 5403 5397 5392 5387 5383 5379 5376 5373 5371 5370 5368 5366 5366 5365 5364 5364 5364 5364 5364 5364 5363 5362 5361 5360 5360 5360 5361 5361 5362 5361 5361 5361 5361 5361 5361 5363 5365 5367
5443 5436 5430 5424 5417 5411 5404 5398 5392 5387 5382 5378 5375 5372 5369 5367 5366 5364 5364 5362 5362 5362 5362 5361 5360 5360 5359 5358 5356 5355 5354 5354 5355 5356 5356 5355 5356 5357 5357 5358 5358 5358 5360 5361
5438 5432 5426 5420 5415 5409 5404 5398 5393 5387 5382 5377 5373 5370 5367 5365 5363 5361 5361 5360 5359 5358 5358 5358 5356 5356 5355 5354 5353 5351 5351 5351 5352 5352 5351 5351 5351 5352 5352 5353 5354 5355 5355 5357
5432 5426 5420 5415 5410 5405 5400 5396 5391 5387 5382 5377 5372 5369 5366 5363 5361 5359 5357 5356 5355 5355 5354 5353 5353 5352 5351 5351 5350 5350 5349 5348 5348 5347 5347 5346 5347 5347 5348 5348 5349 5350 5351 5353
5425 5419 5413 5409 5404 5400 5396 5392 5388 5385 5380 5376 5372 5368 5365 5362 5359 5357 5355 5354 5352 5351 5350 5349 5349 5349 5348 5347 5347 5347 5346 5345 5345 5344 5344 5343 5343 5343 5343 5343 5344 5345 5346 5347
5415 5410 5404 5401 5397 5394 5390 5387 5384 5381 5377 5374 5370 5367 5364 5361 5358 5355 5353 5351 5349 5348 5347 5346 5345 5344 5344 5344 5343 5343 5342 5342 5341 5341 5340 5340 5339 5339 5339 5339 5339 5340 5341 5342
5405 5400 5396 5393 5390 5387 5384 5381 5379 5376 5373 5370 5367 5364 5361 5359 5356 5354 5351 5349 5347 5346 5344 5343 5342 5341 5340 5340 5339 5339 5338 5338 5337 5337 5337 5336 5336 5336 5335 5335 5335 5336 5336 5337
5396 5392 5389 5386 5383 5380 5378 5375 5373 5370 5367 5365 5362 5360 5357 5355 5353 5351 5349 5346 5344 5342 5341 5340 5339 5338 5337 5336 5336 5335 5334 5334 5333 5332 5332 5332 5331 5331 5331 5331 5331 5332 5332 5332